FW5359 Weather Reports


time (UTC)temp
C
wind
direction
speed
KPH
gust
KPH
rain 1hr
cm
rain 24hr
cm
rain mn
cm
humidity
%
barometer
mb
20260906225431 32 76 6.4 16.1 0.00 0.00 0.00 57 1013.0
20260906224925 32 76 4.8 16.1 0.00 0.00 0.00 57 1012.9
20260906223917 32 46 4.8 16.1 0.00 0.00 0.00 57 1012.9
20260906223417 33 59 3.2 16.1 0.00 0.00 0.00 57 1012.9
20260906222918 33 64 3.2 14.5 0.00 0.00 0.00 58 1012.9
20260906222417 32 82 4.8 14.5 0.00 0.00 0.00 57 1013.0
20260906221917 32 9 4.8 17.7 0.00 0.00 0.00 58 1013.1
20260906221418 32 0 4.8 17.7 0.00 0.00 0.00 58 1013.2
20260906220917 32 69 4.8 14.5 0.00 0.00 0.00 59 1013.2
20260906220417 32 0 3.2 12.9 0.00 0.00 0.00 60 1013.2
20260906215917 31 90 3.2 14.5 0.00 0.00 0.00 60 1013.4
20260906215417 31 15 4.8 14.5 0.00 0.00 0.00 60 1013.3
20260906214917 32 34 4.8 14.5 0.00 0.00 0.00 59 1013.4
20260906214418 32 33 3.2 14.5 0.00 0.00 0.00 58 1013.3
20260906214146 33 46 3.2 14.5 0.00 0.00 0.00 57 1013.4
20260906213415 33 56 1.6 14.5 0.00 0.00 0.00 54 1013.4
20260906212916 33 240 1.6 6.4 0.00 0.00 0.00 50 1013.4
20260906212415 33 240 1.6 6.4 0.00 0.00 0.00 50 1013.4
20260906211917 33 228 1.6 4.8 0.00 0.00 0.00 49 1013.4
20260906211412 33 112 3.2 6.4 0.00 0.00 0.00 50 1013.5
20260906210906 33 111 3.2 11.3 0.00 0.00 0.00 50 1013.5
20260906210359 33 106 3.2 11.3 0.00 0.00 0.00 49 1013.6
20260906205854 33 121 1.6 11.3 0.00 0.00 0.00 50 1013.6
20260906205348 34 157 1.6 11.3 0.00 0.00 0.00 50 1013.7
20260906204841 34 151 1.6 12.9 0.00 0.00 0.00 49 1013.7
20260906204336 34 123 3.2 12.9 0.00 0.00 0.00 49 1013.7
20260906203830 34 123 4.8 14.5 0.00 0.00 0.00 48 1013.8
20260906203323 35 157 3.2 14.5 0.00 0.00 0.00 47 1013.9
20260906202818 35 230 3.2 11.3 0.00 0.00 0.00 49 1013.7
20260906202312 35 228 3.2 14.5 0.00 0.00 0.00 49 1013.8
20260906201806 35 180 4.8 14.5 0.00 0.00 0.00 49 1013.9
20260906201530 35 170 4.8 12.9 0.00 0.00 0.00 49 1013.9
20260906200753 35 186 3.2 12.9 0.00 0.00 0.00 48 1014.0
20260906200519 35 238 4.8 16.1 0.00 0.00 0.00 48 1014.1
20260906195742 34 121 4.8 16.1 0.00 0.00 0.00 48 1014.2
20260906195236 34 0 4.8 12.9 0.00 0.00 0.00 46 1014.2
20260906194730 34 85 4.8 12.9 0.00 0.00 0.00 45 1014.3
20260906194227 34 114 4.8 11.3 0.00 0.00 0.00 46 1014.3
20260906193725 34 159 3.2 11.3 0.00 0.00 0.00 47 1014.4
20260906193453 34 105 4.8 17.7 0.00 0.00 0.00 47 1014.5
20260906192723 34 102 4.8 17.7 0.00 0.00 0.00 49 1014.5
20260906192453 35 128 1.6 14.5 0.00 0.00 0.00 48 1014.6
20260906191721 34 161 1.6 9.7 0.00 0.00 0.00 50 1014.7
20260906191219 34 119 3.2 14.5 0.00 0.00 0.00 49 1014.8
20260906190947 34 149 3.2 14.5 0.00 0.00 0.00 50 1014.8
20260906190217 34 90 3.2 9.7 0.00 0.00 0.00 49 1014.9
20260906185717 34 155 3.2 12.9 0.00 0.00 0.00 52 1014.9
20260906185217 34 149 3.2 12.9 0.00 0.00 0.00 52 1014.9
20260906184717 33 165 3.2 12.9 0.00 0.00 0.00 51 1015.2
20260906184217 33 150 4.8 11.3 0.00 0.00 0.00 54 1015.2
20260906183712 33 141 3.2 11.3 0.00 0.00 0.00 52 1015.0
20260906182946 33 166 3.2 14.5 0.00 0.00 0.00 54 1015.2
20260906182446 34 157 3.2 14.5 0.00 0.00 0.00 54 1015.3
20260906181712 34 254 3.2 14.5 0.00 0.00 0.00 53 1015.3
20260906181212 33 153 3.2 14.5 0.00 0.00 0.00 56 1015.5
20260906180712 33 171 1.6 9.7 0.00 0.00 0.00 56 1015.6
20260906180444 33 104 3.2 9.7 0.00 0.00 0.00 56 1015.6
20260906175712 32 115 4.8 12.9 0.00 0.00 0.00 58 1015.7
20260906175208 33 180 4.8 14.5 0.00 0.00 0.00 56 1015.8
20260906174709 33 139 3.2 14.5 0.00 0.00 0.00 58 1015.9
20260906174209 32 238 3.2 11.3 0.00 0.00 0.00 59 1016.0
20260906173708 32 133 3.2 11.3 0.00 0.00 0.00 60 1016.1
20260906173440 32 126 4.8 14.5 0.00 0.00 0.00 59 1016.2
20260906172707 33 98 3.2 14.5 0.00 0.00 0.00 59 1016.3
20260906172205 32 130 3.2 14.5 0.00 0.00 0.00 59 1016.4
20260906171703 32 148 1.6 14.5 0.00 0.00 0.00 61 1016.4
20260906171202 32 200 1.6 6.4 0.00 0.00 0.00 60 1016.4
20260906170702 32 214 3.2 9.7 0.00 0.00 0.00 60 1016.4
20260906170202 32 223 1.6 9.7 0.00 0.00 0.00 60 1016.5
20260906165702 32 286 3.2 14.5 0.00 0.00 0.00 60 1016.4
20260906165203 32 290 3.2 14.5 0.00 0.00 0.00 61 1016.5
20260906164702 32 311 1.6 11.3 0.00 0.00 0.00 61 1016.5
20260906164201 32 168 1.6 8.0 0.00 0.00 0.00 61 1016.5
20260906163657 32 148 1.6 8.0 0.00 0.00 0.00 61 1016.5
20260906163150 31 150 1.6 8.0 0.00 0.00 0.00 63 1016.5
20260906162643 31 151 3.2 9.7 0.00 0.00 0.00 62 1016.5
20260906162137 31 168 3.2 9.7 0.00 0.00 0.00 63 1016.4
20260906161632 31 250 1.6 6.4 0.00 0.00 0.00 64 1016.4
20260906161126 31 294 1.6 9.7 0.00 0.00 0.00 64 1016.5
20260906160620 31 213 3.2 11.3 0.00 0.00 0.00 64 1016.6
20260906160113 31 167 1.6 11.3 0.00 0.00 0.00 65 1016.5
20260906155608 31 285 1.6 6.4 0.00 0.00 0.00 66 1016.5
20260906155102 30 284 3.2 8.0 0.00 0.00 0.00 65 1016.4
20260906154556 30 198 1.6 8.0 0.00 0.00 0.00 65 1016.4
20260906154050 30 151 1.6 8.0 0.00 0.00 0.00 67 1016.3
20260906153544 30 243 1.6 8.0 0.00 0.00 0.00 66 1016.3
20260906153037 30 177 1.6 8.0 0.00 0.00 0.00 66 1016.3
20260906152804 30 225 1.6 6.4 0.00 0.00 0.00 67 1016.3
20260906152026 30 233 3.2 12.9 0.00 0.00 0.00 67 1016.4
20260906151520 30 137 1.6 12.9 0.00 0.00 0.00 69 1016.3
20260906151245 30 210 1.6 6.4 0.00 0.00 0.00 69 1016.3
20260906150508 29 212 1.6 8.0 0.00 0.00 0.00 69 1016.2
20260906150002 29 217 1.6 9.7 0.00 0.00 0.00 70 1016.2
20260906145222 29 126 1.6 6.4 0.00 0.00 0.00 71 1016.1
20260906144444 29 244 1.6 8.0 0.00 0.00 0.00 70 1016.0
20260906143938 29 159 3.2 8.0 0.00 0.00 0.00 71 1016.0
20260906143433 29 159 1.6 8.0 0.00 0.00 0.00 71 1016.1
20260906142926 28 153 1.6 8.0 0.00 0.00 0.00 72 1016.0
20260906142420 28 153 1.6 8.0 0.00 0.00 0.00 72 1016.1
20260906141913 28 184 1.6 8.0 0.00 0.00 0.00 72 1016.1
20260906141407 28 196 1.6 6.4 0.00 0.00 0.00 74 1016.1
20260906140901 28 254 1.6 6.4 0.00 0.00 0.00 75 1016.0
20260906140356 27 256 0.0 6.4 0.00 0.00 0.00 75 1016.0
20260906135850 27 265 1.6 9.7 0.00 0.00 0.00 77 1016.0
20260906135344 27 268 1.6 9.7 0.00 0.00 0.00 77 1015.9
20260906135109 27 158 0.0 3.2 0.00 0.00 0.00 80 1015.8
20260906134332 27 148 0.0 0.0 0.00 0.00 0.00 80 1015.7
20260906134104 27 148 0.0 0.0 0.00 0.00 0.00 81 1015.7
20260906133333 27 148 0.0 0.0 0.00 0.00 0.00 82 1015.7
20260906132832 26 148 0.0 3.2 0.00 0.00 0.00 82 1015.8
20260906132333 26 148 0.0 3.2 0.00 0.00 0.00 82 1015.7
20260906131828 26 148 0.0 3.2 0.00 0.00 0.00 83 1015.6
20260906131325 26 148 0.0 3.2 0.00 0.00 0.00 84 1015.5
20260906130826 25 148 0.0 0.0 0.00 0.00 0.00 85 1015.4
20260906130326 25 148 0.0 0.0 0.00 0.00 0.00 86 1015.3
20260906125824 24 148 0.0 0.0 0.00 0.00 0.00 86 1015.2
20260906125322 24 148 0.0 0.0 0.00 0.00 0.00 86 1015.2
20260906124822 24 148 0.0 0.0 0.00 0.00 0.00 86 1015.2
20260906124322 23 148 0.0 0.0 0.00 0.00 0.00 86 1015.0
20260906123820 23 148 0.0 0.0 0.00 0.00 0.00 85 1015.0
20260906123320 23 148 0.0 0.0 0.00 0.00 0.00 85 1014.9
20260906122820 23 148 0.0 0.0 0.00 0.00 0.00 85 1014.9
20260906122548 23 148 0.0 0.0 0.00 0.00 0.00 85 1014.8
20260906121821 23 148 0.0 0.0 0.00 0.00 0.00 86 1014.8
20260906121321 23 148 0.0 0.0 0.00 0.00 0.00 86 1014.8
20260906120816 23 148 0.0 0.0 0.00 0.00 0.00 85 1014.8
20260906120319 23 148 0.0 0.0 0.00 0.00 0.00 85 1014.7
20260906115819 23 148 0.0 0.0 0.00 0.00 0.00 86 1014.7
20260906115316 23 148 0.0 0.0 0.00 0.00 0.00 86 1014.6
20260906114816 23 148 0.0 0.0 0.00 0.00 0.00 86 1014.5
20260906114316 23 148 0.0 0.0 0.00 0.00 0.00 85 1014.5
20260906113816 23 148 0.0 0.0 0.00 0.00 0.00 85 1014.5
20260906113315 23 148 0.0 0.0 0.00 0.00 0.00 85 1014.5
20260906112815 23 148 0.0 0.0 0.00 0.00 0.00 85 1014.4
20260906112546 23 148 0.0 0.0 0.00 0.00 0.00 85 1014.3
20260906111816 23 148 0.0 0.0 0.00 0.00 0.00 85 1014.3
20260906111316 23 148 0.0 0.0 0.00 0.00 0.00 85 1014.3
20260906110816 23 148 0.0 0.0 0.00 0.00 0.00 85 1014.4
20260906110316 23 148 0.0 0.0 0.00 0.00 0.00 84 1014.3
20260906105816 23 148 0.0 0.0 0.00 0.00 0.00 84 1014.2
20260906105547 23 148 0.0 1.6 0.00 0.00 0.00 84 1014.2
20260906104816 23 148 0.0 4.8 0.00 0.00 0.00 84 1014.0
20260906104315 23 148 0.0 4.8 0.00 0.00 0.00 83 1013.8
20260906103808 23 148 0.0 1.6 0.00 0.00 0.00 83 1013.7
20260906103303 24 147 0.0 4.8 0.00 0.00 0.00 83 1013.6
20260906102757 24 147 0.0 4.8 0.00 0.00 0.00 84 1013.5
20260906102250 24 148 0.0 0.0 0.00 0.00 0.00 85 1013.6
20260906101743 24 148 0.0 0.0 0.00 0.00 0.00 84 1013.6
20260906101237 24 148 0.0 0.0 0.00 0.00 0.00 84 1013.6
20260906100730 24 148 0.0 0.0 0.00 0.00 0.00 83 1013.6
20260906100225 24 148 0.0 0.0 0.00 0.00 0.00 82 1013.6
20260906095719 24 148 0.0 0.0 0.00 0.00 0.00 82 1013.5
20260906095443 24 148 0.0 0.0 0.00 0.00 0.00 82 1013.4
20260906094707 24 148 0.0 0.0 0.00 0.00 0.00 82 1013.5
20260906094201 24 148 0.0 0.0 0.00 0.00 0.00 82 1013.4
20260906093655 24 148 0.0 1.6 0.00 0.00 0.00 82 1013.4
20260906093149 24 148 0.0 3.2 0.00 0.00 0.00 82 1013.4
20260906092643 25 148 0.0 3.2 0.00 0.00 0.00 83 1013.4
20260906092137 25 148 0.0 0.0 0.00 0.00 0.00 83 1013.4
20260906091901 25 149 0.0 0.0 0.00 0.00 0.00 82 1013.5
20260906091125 25 149 0.0 0.0 0.00 0.00 0.00 81 1013.4
20260906090619 25 149 0.0 0.0 0.00 0.00 0.00 81 1013.5
20260906085606 25 149 0.0 0.0 0.00 0.00 0.00 81 1013.5
20260906085100 25 149 0.0 0.0 0.00 0.00 0.00 81 1013.6
20260906084555 25 149 0.0 0.0 0.00 0.00 0.00 81 1013.7
20260906083543 25 149 0.0 0.0 0.00 0.00 0.00 80 1013.6
20260906083037 25 149 0.0 0.0 0.00 0.00 0.00 80 1013.7
20260906082531 25 149 0.0 0.0 0.00 0.00 0.00 80 1013.8
20260906082025 25 149 0.0 0.0 0.00 0.00 0.00 80 1013.8
20260906081012 26 149 0.0 0.0 0.00 0.00 0.00 79 1014.0
20260906080737 26 149 0.0 0.0 0.00 0.00 0.00 79 1014.1
20260906080002 26 149 0.0 0.0 0.00 0.00 0.00 79 1014.2
20260906075454 26 149 0.0 0.0 0.00 0.00 0.00 79 1014.3
20260906074442 26 149 0.0 3.2 0.00 0.00 0.00 78 1014.4
20260906073936 26 149 0.0 3.2 0.00 0.00 0.00 78 1014.4
20260906073431 26 149 0.0 4.8 0.00 0.00 0.00 78 1014.5
20260906072925 26 149 0.0 4.8 0.00 0.00 0.00 78 1014.5
20260906072419 26 149 1.6 11.3 0.00 0.00 0.00 78 1014.5
20260906072145 26 149 1.6 11.3 0.00 0.00 0.00 77 1014.7
20260906071407 26 161 1.6 9.7 0.00 0.00 0.00 77 1014.9
20260906070900 26 163 1.6 8.0 0.00 0.00 0.00 76 1015.0
20260906070627 26 163 3.2 12.9 0.00 0.00 0.00 76 1015.2
20260906065849 26 163 3.2 12.9 0.00 0.00 0.00 76 1015.0
20260906065614 26 219 1.6 9.7 0.00 0.00 0.00 75 1015.2
20260906065107 26 232 1.6 9.7 0.00 0.00 0.00 74 1015.3
20260906064331 26 227 3.2 12.9 0.00 0.00 0.00 74 1015.3
20260906064055 27 229 3.2 12.9 0.00 0.00 0.00 74 1015.3
20260906063319 27 184 3.2 12.9 0.00 0.00 0.00 73 1015.2
20260906062813 27 211 1.6 12.9 0.00 0.00 0.00 73 1015.2
20260906062311 27 153 1.6 4.8 0.00 0.00 0.00 72 1015.0
20260906061811 27 153 1.6 11.3 0.00 0.00 0.00 71 1015.2
20260906061311 27 154 3.2 14.5 0.00 0.00 0.00 71 1015.2
20260906060811 27 150 3.2 14.5 0.00 0.00 0.00 71 1015.3
20260906060311 27 169 4.8 12.9 0.00 0.00 0.00 70 1015.3
20260906055811 27 157 4.8 12.9 0.00 0.00 0.00 70 1015.3
20260906055312 27 169 3.2 11.3 0.00 0.00 0.00 70 1015.3
20260906054811 27 145 3.2 11.3 0.00 0.00 0.00 69 1015.4
20260906054309 27 144 3.2 17.7 0.00 0.00 0.00 69 1015.4
20260906053809 27 175 3.2 17.7 0.00 0.00 0.00 69 1015.3
20260906053309 28 169 1.6 9.7 0.00 0.00 0.00 68 1015.3
20260906052807 28 156 3.2 11.3 0.00 0.00 0.00 68 1015.2
20260906052306 28 143 3.2 11.3 0.00 0.00 0.00 68 1015.2
20260906051803 28 147 3.2 11.3 0.00 0.00 0.00 69 1015.3
20260906051302 28 188 3.2 11.3 0.00 0.00 0.00 70 1015.2
20260906050801 28 157 1.6 11.3 0.00 0.00 0.00 70 1015.3
20260906050300 28 220 1.6 8.0 0.00 0.00 0.00 70 1015.3
20260906045759 28 190 1.6 8.0 0.00 0.00 0.00 70 1015.3
20260906045252 28 171 1.6 8.0 0.00 0.00 0.00 70 1015.5
20260906044746 28 165 1.6 12.9 0.00 0.00 0.00 70 1015.5
20260906044240 28 161 3.2 12.9 0.00 0.00 0.00 69 1015.5
20260906043734 28 175 3.2 14.5 0.00 0.00 0.00 69 1015.4
20260906042722 28 237 4.8 12.9 0.00 0.00 0.00 68 1015.3
20260906042446 29 207 3.2 12.9 0.00 0.00 0.00 67 1015.4
20260906041710 29 180 4.8 14.5 0.00 0.00 0.00 66 1015.4
20260906041203 29 159 4.8 14.5 0.00 0.00 0.00 66 1015.4
20260906040658 29 184 3.2 14.5 0.00 0.00 0.00 66 1015.2
20260906040152 29 166 3.2 12.9 0.00 0.00 0.00 66 1015.2
20260906035646 29 150 3.2 11.3 0.00 0.00 0.00 65 1015.0
20260906035140 29 171 4.8 14.5 0.00 0.00 0.00 65 1015.0
20260906034634 30 142 4.8 14.5 0.00 0.00 0.00 65 1014.9
20260906034400 30 153 3.2 9.7 0.00 0.00 0.00 64 1014.9
20260906033622 30 148 3.2 12.9 0.00 0.00 0.00 64 1014.8
20260906033117 30 171 4.8 16.1 0.00 0.00 0.00 63 1014.7
20260906032610 30 105 4.8 14.5 0.00 0.00 0.00 63 1014.5
20260906032335 30 166 4.8 19.3 0.00 0.00 0.00 62 1014.4
20260906031558 30 111 4.8 17.7 0.00 0.00 0.00 61 1014.3
20260906031052 30 150 3.2 14.5 0.00 0.00 0.00 60 1014.3
20260906030546 31 179 3.2 11.3 0.00 0.00 0.00 58 1014.2
20260906030040 31 144 3.2 11.3 0.00 0.00 0.00 57 1014.1
20260906025534 31 175 3.2 11.3 0.00 0.00 0.00 55 1013.9
20260906025028 31 157 3.2 9.7 0.00 0.00 0.00 54 1013.9
20260906024522 30 163 1.6 9.7 0.00 0.00 0.00 54 1013.8
20260906024015 30 155 1.6 16.1 0.00 0.00 0.00 54 1013.6
20260906023740 30 155 1.6 16.1 0.00 0.00 0.00 54 1013.5
20260906023004 30 115 0.0 3.2 0.00 0.00 0.00 55 1013.3
20260906022458 30 115 0.0 1.6 0.00 0.00 0.00 56 1013.1
20260906021952 30 115 0.0 1.6 0.00 0.00 0.00 57 1013.0
20260906021446 30 115 0.0 0.0 0.00 0.00 0.00 57 1012.9
20260906020940 30 115 0.0 0.0 0.00 0.00 0.00 57 1012.8
20260906020433 30 115 0.0 0.0 0.00 0.00 0.00 56 1012.6
20260906020205 31 115 0.0 0.0 0.00 0.00 0.00 56 1012.7
20260906015435 31 115 0.0 0.0 0.00 0.00 0.00 55 1012.6
20260906014930 31 115 0.0 0.0 0.00 0.00 0.00 54 1012.5
20260906014428 31 115 0.0 0.0 0.00 0.00 0.00 53 1012.5
20260906013926 31 115 0.0 0.0 0.00 0.00 0.00 54 1012.4
20260906013426 31 115 0.0 0.0 0.00 0.00 0.00 53 1012.4
20260906012926 31 115 0.0 0.0 0.00 0.00 0.00 53 1012.4
20260906012424 31 115 0.0 0.0 0.00 0.00 0.00 52 1012.4
20260906011924 31 115 0.0 0.0 0.00 0.00 0.00 52 1012.2
20260906011424 32 115 0.0 0.0 0.00 0.00 0.00 51 1012.2
20260906011155 32 115 0.0 0.0 0.00 0.00 0.00 51 1012.1
20260906005919 32 115 0.0 1.6 0.00 0.00 0.00 51 1012.1
20260906005419 32 115 0.0 4.8 0.00 0.00 0.00 51 1012.1
20260906004919 32 115 1.6 4.8 0.00 0.00 0.00 50 1012.2
20260906004420 32 115 1.6 6.4 0.00 0.00 0.00 50 1012.1
20260906003919 32 113 1.6 6.4 0.00 0.00 0.00 50 1012.1
20260906003422 32 123 1.6 6.4 0.00 0.00 0.00 50 1012.1
20260906002922 33 123 1.6 8.0 0.00 0.00 0.00 50 1012.1
20260906002422 33 123 3.2 9.7 0.00 0.00 0.00 50 1012.1
20260906001923 33 114 3.2 9.7 0.00 0.00 0.00 50 1012.0
20260906001416 33 121 3.2 11.3 0.00 0.00 0.00 50 1011.9
20260906001145 33 98 4.8 14.5 0.00 0.00 0.00 50 1011.9
20260906000414 33 94 4.8 14.5 0.00 0.00 0.00 50 1012.0
20260905235914 33 91 4.8 14.5 0.00 0.00 0.00 49 1011.9
20260905235418 33 115 4.8 14.5 0.00 0.00 0.00 49 1011.9
20260905234914 34 94 4.8 14.5 0.00 0.00 0.00 49 1011.9
20260905234414 34 104 3.2 12.9 0.00 0.00 0.00 49 1011.8
20260905233914 34 126 3.2 9.7 0.00 0.00 0.00 48 1011.9
20260905233414 34 115 3.2 11.3 0.00 0.00 0.00 48 1011.8
20260905232913 34 116 1.6 11.3 0.00 0.00 0.00 48 1012.0
20260905232644 34 106 3.2 11.3 0.00 0.00 0.00 47 1012.0
20260905231914 34 106 3.2 11.3 0.00 0.00 0.00 47 1012.0
20260905231413 35 144 3.2 11.3 0.00 0.00 0.00 47 1011.9
20260905231144 35 134 3.2 11.3 0.00 0.00 0.00 47 1012.0
20260905225916 35 27 1.6 11.3 0.00 0.00 0.00 47 1012.1